Regional Weather Roundup
Issued by NWS

Home | Current Version | Previous Version | Graphics & Text | Print | Product List | Glossary On
Versions: 1 2 3 4 5 6 7 8 9 10 11 12 13 14 15 16 17 18 19 20 21 22 23 24 25 26 27 28 29 30 31 32 33 34 35 36 37 38 39 40 41 42 43 44 45 46 47 48 49 50
381
ASUS43 KLSX 200307
RWRMO

WEATHER SUMMARY FOR MISSOURI
NATIONAL WEATHER SERVICE SPRINGFIELD MO
1000 PM CDT THU APR 19 2018

NOTE: "FAIR" INDICATES FEW OR NO CLOUDS BELOW 12,000 FEET WITH NO
       SIGNIFICANT WEATHER AND/OR OBSTRUCTIONS TO VISIBILITY.
       CURRENT SKY AND/OR WEATHER CONDITIONS ARE NOT AVAILABLE FOR
       CHILLICOTHE AND FARMINGTON.

MOZ001>031-035>038-043-044-053-054-200400-
...NORTHERN AND WESTERN MISSOURI...

CITY           SKY/WX    TMP DP  RH WIND       PRES   REMARKS
KANSAS CTY INT PTCLDY    49  29  46 SE8       30.38R
KANSAS C DTWN  PTCLDY    53  29  39 E7        30.38R
LEE`S SUMMIT   CLEAR     48  30  49 E5        30.39R
ST JOSEPH      PTCLDY    48  29  47 E3        30.39R
CHILLICOTHE      N/A     47  28  47 E3        30.41R
KIRKSVILLE     CLEAR     43  28  55 NE5       30.42S

$$
MOZ066>068-077>081-088>096-101>105-200400-
...SOUTHWEST MISSOURI...

CITY           SKY/WX    TMP DP  RH WIND       PRES   REMARKS
SPRINGFIELD    CLEAR     47  31  53 E6        30.36R
JOPLIN         CLEAR     46  33  60 NE5       30.37R
BRANSON        CLEAR     46  28  49 CALM      30.36S

$$
MOZ032>034-039>042-045>050-055>058-069>072-200400-
...CENTRAL MISSOURI...

CITY           SKY/WX    TMP DP  RH WIND       PRES   REMARKS
COLUMBIA       CLEAR     45  29  53 NE6       30.40S
JEFFERSON CITY CLEAR     51  29  42 NE8       30.40S
ROLLA          CLEAR     43  29  57 E7        30.40R
SEDALIA        CLEAR     47  31  53 E6        30.40R
WHITEMAN AFB   PTCLDY    46  29  51 CALM      30.35R
WARRENSBURG    CLEAR     45  30  57 NE5       30.39S
OSAGE BEACH    CLEAR     46  30  53 E5        30.40R

$$
MOZ051-052-059>065-200400-
...EAST CENTRAL MISSOURI...

CITY           SKY/WX    TMP DP  RH WIND       PRES   REMARKS
ST LOUIS INTL  PTCLDY    48  29  47 NE5       30.42R
SPIRIT OF STL  CLEAR     42  34  73 CALM      30.40S
ST CHARLES     CLEAR     43  34  70 NE3       30.41R

$$
MOZ072>076-082>087-097>100-106>115-200400-
...SOUTH CENTRAL AND SOUTHEAST MISSOURI...

CITY           SKY/WX    TMP DP  RH WIND       PRES   REMARKS
CAPE GIRARDEAU FAIR      40  33  76 CALM      30.39S
FARMINGTON     CLEAR     40  32  73 CALM      30.41R
POPLAR BLUFF   FAIR      45  38  76 N6        30.39S
WEST PLAINS    CLOUDY    46  29  51 NE5       30.37R

$$




USA.gov is the U.S. government's official web portal to all federal, state and local government web resources and services.